Location: Padova
(45.4170°N, 11.8830°E)
Time: 05:23:58
(UTC+01:00)

ISS - Visible Passes

Search period start: 20 January 2019 00:00
Search period end: 30 January 2019 00:00
Orbit: 404 x 410 km, 51.6° (Epoch: 20 January)

Date Brightness Start Highest point End Pass type
(mag) Time Alt. Az. Time Alt. Az. Time Alt. Az.
21 Jan -1.5 18:45:00 10° S 18:46:04 14° SSE 18:46:04 14° SSE visible
22 Jan -1.5 19:28:38 10° SW 19:29:55 21° SW 19:29:55 21° SW visible
23 Jan -3.0 18:37:34 10° SSW 18:40:35 34° SE 18:40:56 33° SE visible
24 Jan -2.1 17:46:51 10° S 17:49:21 20° SE 17:51:52 10° E visible
24 Jan -2.5 19:22:19 10° WSW 19:24:36 40° W 19:24:36 40° W visible
25 Jan -3.9 18:30:54 10° SW 18:34:12 76° SSE 18:35:27 35° ENE visible
25 Jan -0.3 20:07:57 10° WNW 20:08:10 11° WNW 20:08:10 11° WNW visible
26 Jan -3.2 17:39:41 10° SW 17:42:50 44° SE 17:46:00 10° ENE visible
26 Jan -2.6 19:16:17 10° W 19:18:57 37° NW 19:18:57 37° NW visible
27 Jan -3.4 18:24:38 10° WSW 18:27:53 56° NNW 18:29:41 23° NE visible
27 Jan -0.5 20:02:00 10° WNW 20:02:24 12° WNW 20:02:24 12° WNW visible
28 Jan -2.4 19:10:18 10° WNW 19:13:05 29° NNW 19:13:05 29° NNW visible
29 Jan -2.7 18:18:34 10° W 18:21:39 35° NNW 18:23:44 17° NE visible
29 Jan -0.7 19:55:52 10° NW 19:56:27 13° NW 19:56:27 13° NW visible
